Rome, GA

11:09 AM EST on November 18, 2019 (GMT -0500)
Russell

Weather History for KRMG - September, 2019

Change the Weather History Date:

Sunday, September 22, 2019

  Actual Average Record
Temperature  
Mean Temperature 74 °F 70 °F  
Max Temperature 91 °F 82 °F 96 °F (2016)
Min Temperature 56 °F 58 °F 50 °F (1999)
Degree Days  
Heating Degree Days 0 1  
Month to date heating degree days 0 3  
Since 1 July heating degree days 0 3  
Cooling Degree Days 8 6  
Month to date cooling degree days 331 188  
Year to date cooling degree days 2090 1554  
Growing Degree Days 24 (Base 50)    
Moisture  
Dew Point 56 °F    
Average Humidity 60    
Maximum Humidity 93    
Minimum Humidity 27    
Precipitation  
Precipitation 0.00 in 0.12 in 1.91 in (2003)
Month to date precipitation T 2.33  
Year to date precipitation 42.45 37.75  
Sea Level Pressure  
Sea Level Pressure 30.14 in    
Wind  
Wind Speed 1 mph ()    
Max Wind Speed 14 mph    
Max Gust Speed 21 mph    
Visibility 10.0 miles    
Events      
T = Trace of Precipitation, MM = Missing Value Source: Averaged Metar Reports

Daily Weather History Graph

Daily Weather History Graph

Search for Another Location

Airport or City:

Astronomy

Sep. 22, 2019 Rise Set
Actual Time 7:28 AM EDT 7:37 PM EDT
Civil Twilight 7:03 AM EDT 8:02 PM EDT
Nautical Twilight 6:34 AM EDT 8:31 PM EDT
Astronomical Twilight 6:04 AM EDT 9:01 PM EDT
Moon 12:32 AM EDT (9/22) 3:16 PM EDT (9/22)
Length of Visible Light 12h 59m
Length of Day
12h 09m
Last Quarter, 44% of the Moon is Illuminated
Sep 22
Last Quarter
Sep 28
New
Oct 5
First Quarter
Oct 13
Full
Oct 21
Last Quarter

Hourly Weather History & Observations

Time (EDT) Temp. Heat Index Dew Point Humidity Pressure Visibility Wind Dir Wind Speed Gust Speed Precip Events Conditions
12:53 AM 63.0 °F - 57.0 °F 81% 30.18 in 10.0 mi Calm Calm - N/A   Clear
1:53 AM 62.1 °F - 57.0 °F 84% 30.18 in 10.0 mi Calm Calm - N/A   Clear
2:53 AM 62.1 °F - 55.9 °F 80% 30.17 in 10.0 mi Calm Calm - N/A   Clear
3:53 AM 60.1 °F - 55.0 °F 83% 30.17 in 10.0 mi NNE 3.5 mph - N/A   Clear
4:53 AM 59.0 °F - 55.0 °F 87% 30.17 in 10.0 mi Calm Calm - N/A   Clear
5:53 AM 57.0 °F - 55.0 °F 93% 30.18 in 10.0 mi Calm Calm - N/A   Clear
6:53 AM 57.0 °F - 53.1 °F 87% 30.20 in 10.0 mi Calm Calm - N/A   Clear
7:53 AM 57.9 °F - 54.0 °F 87% 30.21 in 10.0 mi Calm Calm - N/A   Clear
8:53 AM 63.0 °F - 57.0 °F 81% 30.23 in 10.0 mi NNE 3.5 mph - N/A   Clear
9:53 AM 71.1 °F - 59.0 °F 66% 30.23 in 10.0 mi Calm Calm - N/A   Clear
10:53 AM 75.9 °F - 60.1 °F 58% 30.22 in 10.0 mi Calm Calm - N/A   Clear
11:53 AM 81.0 °F 81.3 °F 59.0 °F 47% 30.20 in 10.0 mi ESE 3.5 mph - N/A   Clear
12:53 PM 86.0 °F 84.2 °F 54.0 °F 33% 30.17 in 10.0 mi WSW 3.5 mph - N/A   Clear
1:53 PM 87.1 °F 85.7 °F 55.9 °F 35% 30.14 in 10.0 mi Variable 3.5 mph - N/A   Partly Cloudy
2:53 PM 90.0 °F 88.6 °F 57.0 °F 33% 30.10 in 10.0 mi Variable 3.5 mph - N/A   Clear
3:53 PM 90.0 °F 87.5 °F 53.1 °F 28% 30.08 in 10.0 mi Calm Calm - N/A   Clear
4:53 PM 91.0 °F 88.5 °F 53.1 °F 27% 30.06 in 10.0 mi North - - N/A   Clear
5:53 PM 90.0 °F 87.9 °F 55.0 °F 30% 30.05 in 10.0 mi ESE 6.9 mph - N/A   Clear
6:53 PM 87.1 °F - 52.0 °F 30% 30.06 in 10.0 mi SSE 8.1 mph - N/A   Clear
7:53 PM 80.1 °F 80.1 °F 55.0 °F 42% 30.07 in 10.0 mi Calm Calm - N/A   Clear
8:53 PM 75.9 °F - 55.9 °F 50% 30.08 in 10.0 mi Calm Calm - N/A   Clear
9:53 PM 70.0 °F - 57.0 °F 63% 30.09 in 10.0 mi Calm Calm - N/A   Clear
10:53 PM 68.0 °F - 57.0 °F 68% 30.10 in 10.0 mi Calm Calm - N/A   Clear
11:53 PM 66.9 °F - 57.0 °F 70% 30.09 in 10.0 mi Calm Calm - N/A   Clear